French Village, MO

2:39 PM CST on February 14, 2016 (GMT -0600)
Farmington Regional

Weather History for KFAM - November, 2012

Change the Weather History Date:

Friday, November 16, 2012

  Actual Average Record
Temperature  
Mean Temperature 42 °F -  
Max Temperature 57 °F 53 °F 73 °F (2001)
Min Temperature 28 °F 35 °F 21 °F (1997)
Degree Days  
Heating Degree Days 22    
Moisture  
Dew Point 28 °F    
Average Humidity 69    
Maximum Humidity 93    
Minimum Humidity 33    
Precipitation  
Precipitation 0.00 in - - ()
Sea Level Pressure  
Sea Level Pressure 30.43 in    
Wind  
Wind Speed 1 mph (ENE)    
Max Wind Speed 7 mph    
Max Gust Speed -    
Visibility 10 miles    
Events      
Averages and records for this station are not official NWS values.
T = Trace of Precipitation, MM = Missing Value Source: NWS Daily Summary

Daily Weather History Graph

Daily Weather History Graph

Search for Another Location

Airport or City:

Trip Planner

Search our weather history database for the weather conditions in past years. The results will help you decide how hot, cold, wet, or windy it might be!

Date:

Astronomy

Nov. 16, 2012 Rise Set
Actual Time 6:43 AM CST 4:49 PM CST
Civil Twilight 6:15 AM CST 5:17 PM CST
Nautical Twilight 5:43 AM CST 5:49 PM CST
Astronomical Twilight 5:12 AM CST 6:20 PM CST
Moon 9:37 AM CST (11/16) 7:49 PM CST (11/16)
Length of Visible Light 11h 02m
Length of Day
10h 05m
Waxing Crescent, 12% of the Moon is Illuminated
Nov 16
Waxing Crescent
Nov 20
First Quarter
Nov 28
Full
Dec 6
Last Quarter
Dec 13
New

Hourly Weather History & Observations

Time (CST) Temp. Windchill Dew Point Humidity Pressure Visibility Wind Dir Wind Speed Gust Speed Precip Events Conditions
12:15 AM 33.8 °F - 28.4 °F 81% 30.39 in 10.0 mi Calm Calm - N/A   Clear
12:35 AM 35.6 °F - 28.4 °F 75% 30.39 in 10.0 mi Calm Calm - N/A   Clear
12:55 AM 33.8 °F - 28.4 °F 81% 30.39 in 10.0 mi Calm Calm - N/A   Clear
1:15 AM 33.8 °F - 30.2 °F 87% 30.39 in 10.0 mi Calm Calm - N/A   Clear
1:35 AM 35.6 °F - 28.4 °F 75% 30.39 in 10.0 mi Calm Calm - N/A   Clear
1:55 AM 33.8 °F - 26.6 °F 75% 30.39 in 10.0 mi Calm Calm - N/A   Clear
2:15 AM 30.2 °F - 26.6 °F 86% 30.40 in 10.0 mi Calm Calm - N/A   Clear
2:35 AM 30.2 °F - 28.4 °F 93% 30.40 in 10.0 mi Calm Calm - N/A   Clear
2:55 AM 32.0 °F - 28.4 °F 87% 30.40 in 10.0 mi Calm Calm - N/A   Clear
3:15 AM 32.0 °F - 26.6 °F 80% 30.40 in 10.0 mi Calm Calm - N/A   Clear
3:35 AM 30.2 °F - 26.6 °F 86% 30.40 in 9.0 mi Calm Calm - N/A   Clear
3:55 AM 30.2 °F - 26.6 °F 86% 30.40 in 10.0 mi Calm Calm - N/A   Clear
4:15 AM 30.2 °F - 24.8 °F 80% 30.40 in 10.0 mi Calm Calm - N/A   Clear
4:35 AM 28.4 °F - 26.6 °F 93% 30.40 in 10.0 mi Calm Calm - N/A   Clear
4:55 AM 28.4 °F - 24.8 °F 86% 30.40 in 10.0 mi Calm Calm - N/A   Clear
5:15 AM 28.4 °F - 26.6 °F 93% 30.40 in 10.0 mi Calm Calm - N/A   Clear
5:35 AM 28.4 °F - 26.6 °F 93% 30.40 in 10.0 mi Calm Calm - N/A   Clear
5:55 AM 28.4 °F - 24.8 °F 86% 30.40 in 10.0 mi Calm Calm - N/A   Clear
6:15 AM 28.4 °F - 24.8 °F 86% 30.41 in 10.0 mi Calm Calm - N/A   Clear
6:35 AM 28.4 °F - 26.6 °F 93% 30.41 in 10.0 mi Calm Calm - N/A   Clear
6:55 AM 28.4 °F - 26.6 °F 93% 30.42 in 10.0 mi Calm Calm - N/A   Clear
7:15 AM 28.4 °F - 24.8 °F 86% 30.43 in 10.0 mi Calm Calm - N/A   Clear
7:35 AM 28.4 °F - 26.6 °F 93% 30.44 in 10.0 mi Calm Calm - N/A   Clear
7:55 AM 30.2 °F - 26.6 °F 86% 30.45 in 10.0 mi Calm Calm - N/A   Clear
8:15 AM - - - N/A% 30.44 in - Calm Calm - N/A   Unknown
8:35 AM 35.6 °F - 30.2 °F 81% 30.45 in 5.0 mi Calm Calm - N/A   Clear
8:55 AM 39.2 °F - 30.2 °F 70% 30.46 in 10.0 mi Calm Calm - N/A   Clear
9:15 AM 42.8 °F - 32.0 °F 66% 30.46 in 10.0 mi Calm Calm - N/A   Clear
9:35 AM 44.6 °F - 33.8 °F 66% 30.46 in 10.0 mi Calm Calm - N/A   Clear
9:55 AM 48.2 °F - 30.2 °F 50% 30.47 in 10.0 mi NE 5.8 mph - N/A   Clear
10:15 AM 48.2 °F - 28.4 °F 46% 30.47 in 10.0 mi Calm Calm - N/A   Clear
10:35 AM 50.0 °F - 30.2 °F 47% 30.46 in 10.0 mi Calm Calm - N/A   Clear
10:55 AM 51.8 °F - 30.2 °F 44% 30.46 in 10.0 mi Calm Calm - N/A   Clear
11:15 AM 53.6 °F - 28.4 °F 38% 30.45 in 10.0 mi East 4.6 mph - N/A   Clear
11:35 AM 53.6 °F - 28.4 °F 38% 30.45 in 10.0 mi East 5.8 mph - N/A   Clear
11:55 AM 55.4 °F - 26.6 °F 33% 30.44 in 10.0 mi Calm Calm - N/A   Clear
12:15 PM 55.4 °F - 26.6 °F 33% 30.44 in 10.0 mi East 5.8 mph - N/A   Clear
12:35 PM 55.4 °F - 26.6 °F 33% 30.43 in 10.0 mi East 3.5 mph - N/A   Clear
12:55 PM - - - N/A% 30.43 in 10.0 mi North - - N/A   Clear
1:15 PM - - - N/A% - - North - - N/A   Unknown
1:35 PM - - - N/A% - - North - - N/A   Unknown
1:55 PM - - - N/A% - - North - - N/A   Unknown
2:15 PM - - - N/A% - - North - - N/A   Unknown
2:35 PM - - - N/A% 30.41 in - North - - N/A   Unknown
2:55 PM 57.2 °F - 28.4 °F 33% 30.42 in 10.0 mi Calm Calm - N/A   Unknown
3:15 PM 57.2 °F - 28.4 °F 33% 30.42 in 10.0 mi ENE 5.8 mph - N/A   Clear
3:35 PM - - - N/A% - - North - - N/A   Unknown
3:55 PM 55.4 °F - 28.4 °F 36% 30.42 in 10.0 mi ENE 5.8 mph - N/A   Unknown
4:15 PM 53.6 °F - 28.4 °F 38% 30.42 in 10.0 mi ENE 4.6 mph - N/A   Clear
4:35 PM 51.8 °F - 26.6 °F 38% 30.42 in 10.0 mi ENE 5.8 mph - N/A   Clear
4:55 PM 50.0 °F - 26.6 °F 40% 30.42 in 10.0 mi ENE 5.8 mph - N/A   Clear
5:15 PM - - - N/A% - 10.0 mi North - - N/A   Clear
5:35 PM - - - N/A% - - North - - N/A   Unknown
5:55 PM - - - N/A% - - North - - N/A   Unknown
6:15 PM - - - N/A% - - North - - N/A   Unknown
6:35 PM 46.4 °F 44.3 °F 26.6 °F 46% 30.43 in - NE 4.6 mph - N/A   Unknown
6:55 PM 44.6 °F 40.7 °F 26.6 °F 49% 30.43 in 10.0 mi ENE 6.9 mph - N/A   Clear
7:15 PM 42.8 °F 38.6 °F 28.4 °F 57% 30.43 in 10.0 mi ENE 6.9 mph - N/A   Clear
7:35 PM 41.0 °F 37.1 °F 28.4 °F 61% 30.44 in 10.0 mi ENE 5.8 mph - N/A   Clear
7:55 PM 37.4 °F - 28.4 °F 70% 30.44 in 10.0 mi Calm Calm - N/A   Clear
8:15 PM 39.2 °F - 28.4 °F 65% 30.45 in 10.0 mi Calm Calm - N/A   Clear
8:35 PM 39.2 °F 37.0 °F 28.4 °F 65% 30.45 in 10.0 mi ENE 3.5 mph - N/A   Clear
8:55 PM 35.6 °F - 26.6 °F 70% 30.45 in 10.0 mi Calm Calm - N/A   Clear
9:15 PM 35.6 °F - 28.4 °F 75% 30.45 in 10.0 mi Calm Calm - N/A   Clear
9:35 PM 37.4 °F - 28.4 °F 70% 30.45 in 10.0 mi Calm Calm - N/A   Clear
9:55 PM 35.6 °F - 26.6 °F 70% 30.45 in 10.0 mi Calm Calm - N/A   Clear
10:15 PM 32.0 °F - 24.8 °F 75% 30.45 in 10.0 mi Calm Calm - N/A   Clear
10:35 PM 33.8 °F - 26.6 °F 75% 30.45 in 10.0 mi Calm Calm - N/A   Clear
10:55 PM 30.2 °F - 26.6 °F 86% 30.45 in 9.0 mi Calm Calm - N/A   Clear
11:15 PM 33.8 °F - 28.4 °F 81% 30.46 in 9.0 mi Calm Calm - N/A   Clear
11:35 PM 32.0 °F - 28.4 °F 87% 30.46 in 10.0 mi Calm Calm - N/A   Clear
11:55 PM 28.4 °F - 26.6 °F 93% 30.46 in 7.0 mi Calm Calm - N/A   Clear